Pocatello, ID

8:19 PM MST on February 22, 2017 (GMT -0700)
Pocatello Regional

Weather History for KPIH - October, 2014

Change the Weather History Date:

Friday, October 3, 2014

  Actual Average Record
Temperature  
Mean Temperature 48 °F 52 °F  
Max Temperature 65 °F 67 °F 88 °F (2010)
Min Temperature 30 °F 36 °F 24 °F (1968)
Degree Days  
Heating Degree Days 17 13  
Month to date heating degree days 46 38  
Since 1 July heating degree days 224 287  
Cooling Degree Days 0 0  
Month to date cooling degree days 0 0  
Year to date cooling degree days 421 392  
Moisture  
Dew Point 32 °F    
Average Humidity 57    
Maximum Humidity 85    
Minimum Humidity 28    
Precipitation  
Precipitation 0.00 in 0.03 in 0.32 in (2008)
Month to date precipitation 0.03 0.09  
Year to date precipitation 10.29 9.00  
Snow  
Snow 0.00 in - - ()
Month to date snowfall 0.0  
Since 1 July snowfall 0.0  
Since 1 September snowfall 0.0  
Snow Depth 0.00 in    
Sea Level Pressure  
Sea Level Pressure 30.36 in    
Wind  
Wind Speed 4 mph (SSW)    
Max Wind Speed 13 mph    
Max Gust Speed 16 mph    
Visibility 10 miles    
Events      
T = Trace of Precipitation, MM = Missing Value Source: NWS Daily Summary

Daily Weather History Graph

Daily Weather History Graph

Search for Another Location

Airport or City:

Trip Planner

Search our weather history database for the weather conditions in past years. The results will help you decide how hot, cold, wet, or windy it might be!

Date:

Astronomy

Oct. 03, 2014 Rise Set
Actual Time 7:30 AM MDT 7:08 PM MDT
Civil Twilight 7:01 AM MDT 7:36 PM MDT
Nautical Twilight 6:28 AM MDT 8:09 PM MDT
Astronomical Twilight 5:55 AM MDT 8:42 PM MDT
Moon 4:10 PM MDT (10/3) 1:47 AM MDT (10/3)
Length of Visible Light 12h 34m
Length of Day
11h 37m
Waxing Gibbous, 71% of the Moon is Illuminated
Oct 3
Waxing Gibbous
Oct 8
Full
Oct 15
Last Quarter
Oct 23
New
Oct 30
First Quarter

Hourly Weather History & Observations

Time (MDT) Temp. Windchill Dew Point Humidity Pressure Visibility Wind Dir Wind Speed Gust Speed Precip Events Conditions
12:53 AM 48.9 °F - 25.0 °F 39% 30.28 in 10.0 mi SW 12.7 mph - N/A   Clear
1:53 AM 42.1 °F 37.1 °F 28.9 °F 60% 30.30 in 10.0 mi SSW 8.1 mph - N/A   Clear
2:53 AM 43.0 °F 37.7 °F 28.0 °F 56% 30.32 in 10.0 mi SSW 9.2 mph - N/A   Clear
3:53 AM 39.0 °F 33.4 °F 28.9 °F 67% 30.33 in 10.0 mi South 8.1 mph - N/A   Clear
4:53 AM 37.9 °F - 28.0 °F 68% 30.33 in 10.0 mi Calm Calm - N/A   Clear
5:53 AM 36.0 °F - 28.9 °F 76% 30.36 in 10.0 mi Calm Calm - N/A   Clear
6:53 AM 33.8 °F 30.8 °F 28.4 °F 81% 30.40 in 10.0 mi ENE 3.5 mph - N/A   Clear
7:53 AM 32.0 °F 28.7 °F 28.9 °F 88% 30.43 in 10.0 mi NNE 3.5 mph - N/A   Clear
8:53 AM 39.9 °F - 33.1 °F 77% 30.42 in 10.0 mi Calm Calm - N/A   Clear
9:53 AM 44.1 °F 40.8 °F 36.0 °F 73% 30.43 in 10.0 mi NW 5.8 mph - N/A   Clear
10:53 AM 48.2 °F - 35.6 °F 62% 30.46 in 10.0 mi Calm Calm - N/A   Clear
11:53 AM 54.0 °F - 30.0 °F 40% 30.42 in 10.0 mi ESE 3.5 mph - N/A   Clear
12:53 PM 57.0 °F - 30.0 °F 36% 30.40 in 10.0 mi WSW 6.9 mph - N/A   Clear
1:53 PM 61.0 °F - 32.0 °F 34% 30.38 in 10.0 mi Variable 5.8 mph - N/A   Clear
2:53 PM 62.1 °F - 33.1 °F 34% 30.35 in 10.0 mi West 4.6 mph - N/A   Clear
3:53 PM 63.0 °F - 33.1 °F 33% 30.35 in 10.0 mi West 8.1 mph - N/A   Clear
4:53 PM 64.0 °F - 30.9 °F 29% 30.34 in 10.0 mi West 10.4 mph - N/A   Clear
5:53 PM 64.0 °F - 30.0 °F 28% 30.34 in 10.0 mi NW 5.8 mph - N/A   Clear
6:53 PM 61.0 °F - 33.1 °F 35% 30.34 in 10.0 mi Calm Calm - N/A   Clear
7:53 PM 50.0 °F - 34.0 °F 54% 30.37 in 10.0 mi ESE 4.6 mph - N/A   Clear
8:53 PM 48.9 °F - 34.0 °F 56% 30.36 in 10.0 mi South 5.8 mph - N/A   Clear
9:53 PM 46.9 °F - 35.1 °F 63% 30.35 in 10.0 mi South 5.8 mph - N/A   Clear
10:53 PM 46.0 °F 44.8 °F 36.0 °F 68% 30.34 in 10.0 mi SE 3.5 mph - N/A   Clear
11:53 PM 44.1 °F - 36.0 °F 73% 30.34 in 10.0 mi Calm Calm - N/A   Clear